FW6992 Weather Reports


Display with metric or nautical units.
time (UTC)temp
F
wind
direction
speed
MPH
gust
MPH
rain 1hr
in
rain 24hr
in
rain mn
in
humidity
%
barometer
mb
20260905020603 72 181 0.0 0.0 0.00 0.55 0.55 94 1017.2
20260905020058 72 181 0.0 0.0 0.00 0.55 0.55 94 1016.8
20260905015557 72 181 0.0 0.0 0.00 0.55 0.55 94 1016.5
20260905015051 72 238 0.0 0.0 0.00 0.55 0.55 94 1016.8
20260905014545 73 238 0.0 0.0 0.00 0.55 0.55 94 1016.7
20260905014041 73 251 0.0 0.0 0.00 0.55 0.55 94 1016.7
20260905013537 73 233 0.0 0.0 0.00 0.55 0.55 94 1016.5
20260905013033 73 233 0.0 0.0 0.00 0.55 0.55 94 1016.2
20260905012527 73 150 0.0 0.0 0.00 0.55 0.55 94 1016.5
20260905012024 73 138 0.0 0.0 0.00 0.55 0.55 94 1016.4
20260905011520 73 138 0.0 0.0 0.00 0.55 0.55 94 1016.3
20260905011015 73 138 0.0 0.0 0.00 0.55 0.55 94 1016.2
20260905010515 73 138 0.0 0.0 0.00 0.55 0.55 94 1016.4
20260905010011 73 138 0.0 0.0 0.00 0.55 0.55 94 1016.4
20260905005507 73 138 0.0 0.0 0.00 0.55 0.55 94 1016.1
20260905005002 73 138 0.0 0.0 0.00 0.55 0.55 94 1015.8
20260905004457 73 138 0.0 0.0 0.00 0.55 0.55 94 1016.0
20260905003952 73 138 0.0 0.0 0.00 0.55 0.55 94 1015.9
20260905003448 73 138 0.0 0.0 0.00 0.55 0.55 93 1016.2
20260905002943 73 138 0.0 0.0 0.00 0.55 0.55 93 1016.2
20260905002444 73 290 0.0 0.0 0.00 0.55 0.55 93 1016.7
20260905001943 73 239 0.0 0.0 0.00 0.55 0.55 93 1016.5
20260905001438 73 256 0.0 0.0 0.00 0.55 0.55 93 1016.4
20260905000932 73 290 0.0 0.0 0.00 0.55 0.55 93 1016.5
20260905000429 73 150 0.0 0.0 0.00 0.55 0.55 93 1016.7
20260904235924 73 143 0.0 0.0 0.00 0.55 0.55 93 1016.8
20260904235420 73 251 0.0 0.0 0.00 0.55 0.55 93 1016.9
20260904234920 73 251 0.0 0.0 0.00 0.55 0.55 93 1016.9
20260904234419 73 251 0.0 0.0 0.00 0.55 0.55 93 1016.4
20260904233915 73 251 0.0 0.0 0.00 0.55 0.55 93 1016.8
20260904233410 73 251 0.0 0.0 0.00 0.55 0.55 93 1016.9
20260904232907 74 326 0.0 2.0 0.00 0.55 0.55 93 1016.8
20260904232404 74 326 0.0 2.0 0.00 0.55 0.55 93 1017.1
20260904231859 74 326 0.0 2.0 0.00 0.55 0.55 93 1016.7
20260904231354 73 145 2.0 3.0 0.00 0.55 0.55 92 1016.3
20260904230849 73 145 2.0 3.0 0.00 0.55 0.55 92 1017.0
20260904230348 73 145 2.0 3.0 0.00 0.55 0.55 92 1016.3
20260904225843 73 145 2.0 3.0 0.00 0.55 0.55 92 1015.4
20260904225341 73 145 2.0 3.0 0.00 0.55 0.55 92 1015.3
20260904224841 73 145 2.0 3.0 0.00 0.55 0.55 92 1015.2
20260904224337 73 145 2.0 3.0 0.02 0.55 0.55 92 1015.3
20260904223836 73 145 2.0 3.0 0.02 0.55 0.55 92 1015.5
20260904223330 73 86 2.0 2.0 0.00 0.54 0.54 92 1016.4
20260904222827 73 86 2.0 2.0 0.00 0.54 0.54 92 1016.7
20260904222321 73 86 2.0 2.0 0.00 0.54 0.54 92 1016.9
20260904221821 73 140 2.0 2.0 0.26 0.54 0.54 91 1017.2
20260904221316 73 140 2.0 2.0 1.37 0.54 0.54 91 1017.4
20260904220812 73 140 2.0 3.0 1.30 0.50 0.50 91 1017.5
20260904220310 74 190 4.0 4.0 0.21 0.32 0.32 91 1018.9
20260904215806 74 79 0.0 2.0 0.52 0.28 0.28 91 1018.8
20260904215305 74 281 2.0 2.0 0.80 0.27 0.27 90 1018.0
20260904214757 74 271 2.0 3.0 1.16 0.19 0.19 89 1017.5
20260904214253 75 263 0.0 1.0 0.61 0.10 0.10 86 1017.2
20260904213750 75 234 1.0 2.0 0.00 0.00 0.00 84 1018.0
20260904213247 75 163 2.0 3.0 0.00 0.00 0.00 83 1018.1
20260904212742 76 279 2.0 2.0 0.00 0.00 0.00 81 1018.1
20260904212241 77 195 2.0 4.0 0.00 0.00 0.00 77 1017.9
20260904211736 80 276 4.0 5.0 0.00 0.00 0.00 71 1018.4
20260904211231 84 149 3.0 12.0 0.00 0.00 0.00 59 1018.4
20260904210726 87 324 4.0 4.0 0.00 0.00 0.00 59 1017.9
20260904210221 88 40 0.0 0.0 0.00 0.00 0.00 59 1016.4
20260904205717 88 40 0.0 0.0 0.00 0.00 0.00 59 1015.4
20260904205208 89 183 1.0 2.0 0.00 0.00 0.00 62 1015.1
20260904204704 89 326 1.0 2.0 0.00 0.00 0.00 57 1015.5
20260904204200 89 223 0.0 3.0 0.00 0.00 0.00 57 1015.5
20260904203656 89 342 0.0 0.0 0.00 0.00 0.00 60 1015.4
20260904203152 89 314 1.0 2.0 0.00 0.00 0.00 57 1015.4
20260904202647 90 292 2.0 2.0 0.00 0.00 0.00 58 1015.5
20260904202144 89 292 0.0 3.0 0.00 0.00 0.00 56 1015.4
20260904201643 88 338 2.0 3.0 0.00 0.00 0.00 58 1015.3
20260904201138 88 338 2.0 3.0 0.00 0.00 0.00 58 1015.7
20260904200638 88 338 2.0 3.0 0.00 0.00 0.00 58 1015.4
20260904200133 87 323 1.0 5.0 0.00 0.00 0.00 60 1015.9
20260904195632 87 347 0.0 3.0 0.00 0.00 0.00 59 1016.2
20260904195126 89 337 2.0 3.0 0.00 0.00 0.00 56 1016.0
20260904194625 90 348 4.0 4.0 0.00 0.00 0.00 56 1015.8
20260904194121 91 346 4.0 4.0 0.00 0.00 0.00 55 1015.6
20260904193621 93 2 1.0 4.0 0.00 0.00 0.00 52 1015.6
20260904193117 94 300 1.0 2.0 0.00 0.00 0.00 52 1015.7
20260904192611 98 315 3.0 4.0 0.00 0.00 0.00 43 1015.5
20260904192107 98 315 3.0 4.0 0.00 0.00 0.00 43 1015.2
20260904191603 98 314 2.0 2.0 0.00 0.00 0.00 44 1015.4
20260904191059 98 327 4.0 4.0 0.00 0.00 0.00 42 1015.5
20260904190554 97 95 1.0 1.0 0.00 0.00 0.00 47 1015.5
20260904190051 97 95 1.0 1.0 0.00 0.00 0.00 47 1015.7
20260904185547 97 95 1.0 1.0 0.00 0.00 0.00 47 1015.6
20260904185042 97 95 1.0 1.0 0.00 0.00 0.00 47 1015.8
20260904184542 97 95 1.0 1.0 0.00 0.00 0.00 47 1015.8
20260904184037 97 95 1.0 1.0 0.00 0.00 0.00 47 1015.8
20260904183532 98 225 2.0 3.0 0.00 0.00 0.00 42 1016.3
20260904183027 98 225 2.0 3.0 0.00 0.00 0.00 42 1016.4
20260904182523 98 225 2.0 3.0 0.00 0.00 0.00 42 1016.2
20260904182023 98 225 2.0 3.0 0.00 0.00 0.00 42 1016.3
20260904181519 98 225 2.0 3.0 0.00 0.00 0.00 42 1016.5
20260904181018 98 225 2.0 3.0 0.00 0.00 0.00 42 1016.5
20260904180513 98 225 2.0 3.0 0.00 0.00 0.00 42 1016.8
20260904180009 98 100 0.0 0.0 0.00 0.00 0.00 43 1016.8
20260904175508 98 289 1.0 2.0 0.00 0.00 0.00 46 1017.1
20260904175001 96 95 2.0 2.0 0.00 0.00 0.00 47 1016.9
20260904174456 96 95 2.0 2.0 0.00 0.00 0.00 47 1017.0
20260904173953 96 95 2.0 2.0 0.00 0.00 0.00 47 1017.3
20260904173450 96 95 2.0 2.0 0.00 0.00 0.00 47 1017.0
20260904172943 96 95 2.0 2.0 0.00 0.00 0.00 47 1017.3
20260904172438 96 114 1.0 1.0 0.00 0.00 0.00 45 1017.4
20260904171938 96 87 2.0 2.0 0.00 0.00 0.00 43 1017.5
20260904171433 0 0.0 0.0 0.00 0.00 0.00 1017.5
20260904170929 0 0.0 0.0 0.00 0.00 0.00 1017.4
20260904170424 0 0.0 0.0 0.00 0.00 0.00 1017.7
20260904165920 0 0.0 0.0 0.00 0.00 0.00 1017.5
20260904165419 0 0.0 0.0 0.00 0.00 0.00 1017.2
20260904164918 0 0.0 0.0 0.00 0.00 0.00 1017.7
20260904164418 0 0.0 0.0 0.00 0.00 0.00 1017.6
20260904163909 93 342 0.0 0.0 0.00 0.00 0.00 52 1017.5
20260904163409 93 342 0.0 0.0 0.00 0.00 0.00 52 1017.9
20260904162908 93 342 0.0 0.0 0.00 0.00 0.00 52 1018.0
20260904162404 93 342 0.0 0.0 0.00 0.00 0.00 52 1017.9
20260904161859 93 342 0.0 0.0 0.00 0.00 0.00 52 1017.8
20260904161354 93 342 0.0 0.0 0.00 0.00 0.00 52 1017.9
20260904160849 93 342 0.0 0.0 0.00 0.00 0.00 52 1017.8
20260904160344 93 342 0.0 0.0 0.00 0.00 0.00 52 1018.2
20260904155839 93 342 0.0 0.0 0.00 0.00 0.00 52 1018.0
20260904155334 93 342 0.0 0.0 0.00 0.00 0.00 52 1017.8
20260904154832 93 342 0.0 0.0 0.00 0.00 0.00 52 1018.1
20260904154327 93 342 0.0 0.0 0.00 0.00 0.00 52 1018.1
20260904153823 93 175 0.0 1.0 0.00 0.00 0.00 50 1018.1
20260904153318 93 175 0.0 1.0 0.00 0.00 0.00 50 1018.3
20260904152814 94 267 0.0 1.0 0.00 0.00 0.00 48 1018.4
20260904152309 94 267 0.0 1.0 0.00 0.00 0.00 48 1018.1
20260904151804 94 83 0.0 0.0 0.00 0.00 0.00 51 1018.1
20260904151303 88 85 2.0 2.0 0.00 0.00 0.00 57 1018.2
20260904150759 88 85 2.0 2.0 0.00 0.00 0.00 57 1018.0
20260904150254 88 85 2.0 2.0 0.00 0.00 0.00 57 1018.2
20260904145752 88 85 2.0 2.0 0.00 0.00 0.00 57 1018.0
20260904145248 88 85 2.0 2.0 0.00 0.00 0.00 57 1018.2
20260904144743 88 85 2.0 2.0 0.00 0.00 0.00 57 1018.0
20260904144239 88 201 1.0 1.0 0.00 0.00 0.00 59 1018.0
20260904143734 88 354 0.0 1.0 0.00 0.00 0.00 58 1017.9
20260904143231 88 241 0.0 0.0 0.00 0.00 0.00 57 1017.9
20260904142727 88 71 0.0 0.0 0.00 0.00 0.00 59 1018.0
20260904142223 88 84 0.0 0.0 0.00 0.00 0.00 58 1017.9
20260904141722 87 222 1.0 1.0 0.00 0.00 0.00 59 1017.9
20260904141218 87 250 0.0 0.0 0.00 0.00 0.00 59 1018.0
20260904140713 87 142 0.0 0.0 0.00 0.00 0.00 59 1017.9
20260904140209 87 290 0.0 0.0 0.00 0.00 0.00 60 1018.0
20260904135707 87 71 0.0 1.0 0.00 0.00 0.00 62 1018.2
20260904135203 87 248 1.0 2.0 0.00 0.00 0.00 59 1018.2
20260904134659 87 251 0.0 1.0 0.00 0.00 0.00 60 1018.0
20260904134158 87 251 0.0 0.0 0.00 0.00 0.00 60 1017.9
20260904133653 87 251 0.0 2.0 0.00 0.00 0.00 61 1018.2
20260904133149 87 71 0.0 1.0 0.00 0.00 0.00 66 1017.8
20260904132648 86 330 0.0 0.0 0.00 0.00 0.00 66 1018.1
20260904132143 86 305 0.0 0.0 0.00 0.00 0.00 65 1018.2
20260904131643 86 305 0.0 0.0 0.00 0.00 0.00 65 1018.1
20260904131139 86 251 0.0 1.0 0.00 0.00 0.00 67 1018.1
20260904130638 86 282 1.0 1.0 0.00 0.00 0.00 67 1017.9
20260904130133 86 282 1.0 1.0 0.00 0.00 0.00 67 1017.8
20260904125629 86 139 0.0 0.0 0.00 0.00 0.00 64 1017.7
20260904125124 86 128 1.0 1.0 0.00 0.00 0.00 65 1017.8
20260904124619 80 304 0.0 2.0 0.00 0.00 0.00 81 1017.7
20260904124115 80 304 0.0 2.0 0.00 0.00 0.00 81 1017.9
20260904123615 80 348 0.0 2.0 0.00 0.00 0.00 81 1017.9
20260904123110 80 317 0.0 2.0 0.00 0.00 0.00 82 1017.8
20260904122605 78 143 0.0 0.0 0.00 0.00 0.00 82 1017.7
20260904122100 78 151 0.0 0.0 0.00 0.00 0.00 82 1017.8
20260904121555 78 135 0.0 1.0 0.00 0.00 0.00 83 1017.7
20260904121051 77 201 0.0 0.0 0.00 0.00 0.00 85 1017.6
20260904120548 77 160 0.0 1.0 0.00 0.00 0.00 85 1017.7
20260904120043 77 290 0.0 1.0 0.00 0.00 0.00 86 1017.7
20260904115538 76 290 0.0 0.0 0.00 0.00 0.00 86 1017.8
20260904115033 76 290 0.0 0.0 0.00 0.00 0.00 88 1017.8
20260904114527 75 238 0.0 0.0 0.00 0.00 0.00 89 1017.8
20260904114022 75 330 0.0 0.0 0.00 0.00 0.00 90 1017.8
20260904113522 74 245 0.0 1.0 0.00 0.00 0.00 91 1017.5
20260904113021 74 290 0.0 1.0 0.00 0.00 0.00 91 1017.7
20260904112516 74 238 0.0 0.0 0.00 0.00 0.00 91 1017.8
20260904112012 73 263 0.0 0.0 0.00 0.00 0.00 91 1017.7
20260904111508 73 150 0.0 0.0 0.00 0.00 0.00 91 1017.5
20260904111004 73 234 0.0 0.0 0.00 0.00 0.00 91 1017.8
20260904110503 73 263 0.0 1.0 0.00 0.00 0.00 91 1017.6
20260904105953 73 251 0.0 1.0 0.00 0.00 0.00 91 1017.6
20260904105452 73 138 0.0 1.0 0.00 0.00 0.00 91 1017.7
20260904104948 73 308 0.0 0.0 0.00 0.00 0.00 91 1017.7
20260904104448 73 217 1.0 1.0 0.00 0.00 0.00 91 1017.6
20260904103939 73 251 0.0 0.0 0.00 0.00 0.00 91 1017.6
20260904103434 73 335 0.0 1.0 0.00 0.00 0.00 91 1017.6
20260904102930 73 290 0.0 0.0 0.00 0.00 0.00 91 1017.6
20260904102425 73 233 0.0 0.0 0.00 0.00 0.00 90 1017.6
20260904101920 73 311 0.0 1.0 0.00 0.00 0.00 90 1017.5
20260904101417 73 181 0.0 1.0 0.00 0.00 0.00 90 1017.5
20260904100907 74 243 0.0 1.0 0.00 0.00 0.00 90 1017.6
20260904100403 74 251 0.0 0.0 0.00 0.00 0.00 90 1017.5
20260904095856 74 58 0.0 1.0 0.00 0.00 0.00 90 1017.4
20260904095351 74 308 0.0 1.0 0.00 0.00 0.00 90 1017.4
20260904094847 74 140 0.0 2.0 0.00 0.00 0.00 90 1017.4
20260904094342 74 215 0.0 1.0 0.00 0.00 0.00 90 1017.3
20260904093838 74 87 0.0 1.0 0.00 0.00 0.00 90 1017.3
20260904093338 74 104 0.0 1.0 0.00 0.00 0.00 90 1017.7
20260904092833 74 209 0.0 1.0 0.00 0.00 0.00 90 1017.5
20260904092330 74 249 0.0 1.0 0.00 0.00 0.00 89 1017.8
20260904091826 74 110 0.0 1.0 0.00 0.00 0.00 89 1017.8
20260904091321 74 238 0.0 1.0 0.00 0.00 0.00 89 1017.8
20260904090815 75 245 0.0 0.0 0.00 0.00 0.00 89 1017.8
20260904090312 75 347 0.0 0.0 0.00 0.00 0.00 88 1017.9
20260904085806 75 290 0.0 0.0 0.00 0.00 0.00 88 1018.0
20260904085256 75 150 0.0 0.0 0.00 0.00 0.00 88 1017.8
20260904084750 75 183 0.0 0.0 0.00 0.00 0.00 87 1017.7
20260904084246 75 137 0.0 1.0 0.00 0.00 0.00 87 1017.6
20260904083742 75 182 0.0 0.0 0.00 0.00 0.00 86 1017.6
20260904083239 75 48 0.0 1.0 0.00 0.00 0.00 87 1018.0
20260904082738 75 330 0.0 0.0 0.00 0.00 0.00 87 1017.7
20260904082233 75 233 0.0 1.0 0.00 0.00 0.00 87 1017.5
20260904081723 75 233 0.0 1.0 0.00 0.00 0.00 86 1017.6
20260904081219 75 357 0.0 0.0 0.00 0.00 0.00 86 1017.7
20260904080714 75 347 0.0 0.0 0.00 0.00 0.00 86 1017.5
20260904080210 75 175 0.0 0.0 0.00 0.00 0.00 85 1017.2
20260904075706 76 245 0.0 0.0 0.00 0.00 0.00 86 1017.5
20260904075201 76 185 0.0 0.0 0.00 0.00 0.00 86 1017.5
20260904074659 76 185 0.0 0.0 0.00 0.00 0.00 86 1017.4
20260904074154 76 185 0.0 0.0 0.00 0.00 0.00 85 1017.4
20260904073650 76 185 0.0 0.0 0.00 0.00 0.00 85 1017.1
20260904073146 76 185 0.0 0.0 0.00 0.00 0.00 84 1017.4
20260904072642 76 233 0.0 0.0 0.00 0.00 0.00 84 1017.2
20260904072136 76 233 0.0 0.0 0.00 0.00 0.00 84 1017.0
20260904071632 76 226 0.0 0.0 0.00 0.00 0.00 84 1017.2
20260904071126 76 226 0.0 0.0 0.00 0.00 0.00 84 1017.1
20260904070625 76 263 0.0 0.0 0.00 0.00 0.00 83 1016.9
20260904070120 76 263 0.0 0.0 0.00 0.00 0.00 84 1017.0
20260904065615 76 263 0.0 0.0 0.00 0.00 0.00 83 1016.9
20260904065112 76 263 0.0 0.0 0.00 0.00 0.00 84 1017.0
20260904064607 76 263 0.0 0.0 0.00 0.00 0.00 84 1016.9
20260904064107 76 263 0.0 0.0 0.00 0.00 0.00 84 1016.9
20260904063603 76 263 0.0 0.0 0.00 0.00 0.00 85 1016.8
20260904063104 76 251 0.0 0.0 0.00 0.00 0.00 85 1016.9
20260904062600 76 238 0.0 0.0 0.00 0.00 0.00 86 1017.0
20260904062055 76 318 0.0 0.0 0.00 0.00 0.00 86 1016.9
20260904061551 76 318 0.0 0.0 0.00 0.00 0.00 85 1016.7
20260904061047 76 238 0.0 0.0 0.00 0.00 0.00 85 1017.0
20260904060543 77 163 0.0 1.0 0.00 0.00 0.00 84 1016.7
20260904060040 76 314 0.0 0.0 0.00 0.00 0.00 85 1016.9
20260904055539 76 305 0.0 0.0 0.00 0.00 0.00 85 1017.0
20260904055035 76 305 0.0 0.0 0.00 0.00 0.00 85 1017.1
20260904054531 76 305 0.0 0.0 0.00 0.00 0.00 85 1017.0
20260904054026 76 305 0.0 0.0 0.00 0.00 0.00 85 1017.0
20260904053526 76 4 0.0 0.0 0.00 0.00 0.00 85 1017.5
20260904053021 77 330 0.0 0.0 0.00 0.00 0.00 85 1017.7
20260904052517 77 256 0.0 0.0 0.00 0.00 0.00 84 1018.1
20260904052013 77 216 0.0 0.0 0.00 0.00 0.00 82 1018.5
20260904051510 77 216 0.0 0.0 0.00 0.00 0.00 82 1018.8
20260904051008 77 216 0.0 0.0 0.00 0.00 0.00 82 1018.8
20260904050505 77 228 4.0 4.0 0.00 0.00 0.00 82 1019.2
20260904050000 77 3 0.0 2.0 0.00 0.00 0.00 82 1019.1
20260904045456 77 251 0.0 0.0 0.00 0.00 0.00 81 1018.6
20260904044950 77 251 0.0 0.0 0.00 0.00 0.00 81 1018.6
20260904044446 77 251 0.0 0.0 0.00 0.00 0.00 81 1018.4
20260904043942 77 251 0.0 0.0 0.00 0.00 0.00 81 1018.5
20260904043439 77 320 0.0 0.0 0.00 0.00 0.00 81 1018.5
20260904042934 77 320 0.0 0.0 0.00 0.00 0.00 81 1018.6
20260904042430 77 320 0.0 0.0 0.00 0.00 0.00 82 1018.8
20260904041925 77 320 0.0 0.0 0.00 0.00 0.00 82 1018.6
20260904041421 77 320 0.0 0.0 0.00 0.00 0.00 81 1018.6
20260904040917 77 320 0.0 0.0 0.00 0.00 0.00 81 1018.5
20260904040412 77 226 0.0 0.0 0.00 0.00 0.00 80 1018.7
20260904035908 77 226 0.0 0.0 0.00 0.00 0.00 80 1018.7
20260904035403 77 226 0.0 0.0 0.00 0.00 0.00 80 1018.7
20260904034903 77 226 0.0 0.0 0.00 0.00 0.00 79 1018.9
20260904034353 78 226 0.0 0.0 0.00 0.00 0.00 78 1019.1
20260904033849 78 226 0.0 0.0 0.00 0.00 0.00 78 1018.9
20260904033344 78 226 0.0 0.0 0.00 0.00 0.00 77 1019.0
20260904032840 78 195 0.0 0.0 0.00 0.00 0.00 77 1018.9
20260904032340 78 305 0.0 0.0 0.00 0.00 0.00 76 1019.0
20260904031834 78 330 0.0 0.0 0.00 0.00 0.00 77 1018.7
20260904031329 78 138 0.0 0.0 0.00 0.00 0.00 77 1018.4
20260904030825 78 318 0.0 0.0 0.00 0.00 0.00 76 1018.3
20260904030321 78 245 0.0 0.0 0.00 0.00 0.00 77 1018.5
20260904025817 78 276 0.0 0.0 0.00 0.00 0.00 77 1018.5
20260904025312 78 276 0.0 0.0 0.00 0.00 0.00 76 1018.5
20260904024806 78 276 0.0 0.0 0.00 0.00 0.00 76 1018.6
20260904024301 78 276 0.0 0.0 0.00 0.00 0.00 76 1018.5
20260904023758 78 276 0.0 0.0 0.00 0.00 0.00 76 1018.6
20260904023254 79 290 0.0 1.0 0.00 0.00 0.00 75 1018.6
20260904022752 79 251 0.0 0.0 0.00 0.00 0.00 75 1018.7
20260904022250 79 251 0.0 0.0 0.00 0.00 0.00 74 1018.5
20260904021747 79 251 0.0 0.0 0.00 0.00 0.00 73 1018.8
20260904021247 79 251 0.0 0.0 0.00 0.00 0.00 73 1018.7
20260904020742 79 343 0.0 0.0 0.00 0.00 0.00 72 1018.6